星链-2756 (STARLINK-2756 )

导读

STARLINK-2756是美国太空探索技术公司(SpaceX)星链(Starlink)卫星星座中的一颗卫星,于2021年5月26日发射升空。它属于星链项目的第二代卫星,主要为全球提供高速卫星互联网服务,目前已在轨道运行近五年,承担着为偏远地区及地面网络覆盖不足区域提供网络连接的任务。

Basic Information
目录编号:
48683
目录名称:
STARLINK-2756
国际标识:
2021-044AX
轨道中心:
EARTH
卫星名称:
星链-2756
卫星全名:
星链-2756 (STARLINK-2756 )
卫星状态:
在轨 (已飞行1928 天)
发射日期:
2021-05-26 UTC
国别 :
美国 (US)
星等 :
--
Orbit Information
数据来源 国际轨道数据
星历时间: 2026-09-05T11:46:40+0800
11小时前
查看轨道信息
半长轴: 6848.9km
偏心率: 0.0001128
轨道倾角: 53.160°
近地点辐角 81.766°
升交点赤经 310.014°
平近点角 278.347°
近地点: 469.99km
远地点: 471.536km
周期: 94.014分钟
每日圈数: 15.316926
Detailed Information
固有亮度:
5
最大亮度:
2.5
卫星平台:
Starlink v1.5
覆盖范围:
全球
运营商:
太空探索技术公司
运营商所在国:
美国
制造商(研发单位):
太空探索技术公司
制造商所在国:
美国
使用方式:
暂无
Satellite Introduction
星链(Starlink)计划是由太空探索技术公司(SpaceX)提出的一个巨型低轨卫星互联网星座项目,计划在2019年至2024年间在太空搭建由约1.2万颗卫星组成的“星链”网络,其中1584颗将部署在地球上空550千米处的近地轨道,并从2020年开始工作。该卫星仍在工作。
2D Orbit Map
3D Orbit Map
Orbit Altitude Analysis Chart
Orbit Inclination Analysis Chart
Orbit Comprehensive Analysis Chart
View Comprehensive Chart
Conjunction Data List
Event ID Objects TCA Miss Dist (km) Collision Risk Probability Collision Risk Index (CRI) Action
CDM_260907-183404-868306-754321
2026-09-07T
18:34:01+0000
2.453 km
极远距离
1.803936E-6 低风险 0.4
CDM_260905-174604-868306-538621
2026-09-05T
17:46:06+0000
2.771 km
极远距离
1.479676E-6 低风险 0.38
CDM_260906-132004-868306-877621
2026-09-06T
13:20:13+0000
2.959 km
极远距离
8.298901E-7 极低风险 0.33